Powrót do katalogu

STARLINK-11470

AktywnyŁącznośćVLEO
NORAD 62062·PAYLOAD·🇺🇸 United States

Wystrzelony Nov 24, 2024 z Vandenberg Space Force Base

Loading…

Następne Przeloty (najbliższe 24 godziny)

TLE

ŚwieżeSource: CelesTrak SupGP

Epoka: Sep 15, 2026, 03:34 UTC

1 62062C 24217F   26258.14909722 -.00104620  00000+0 -86147-3 0  2580
2 62062  53.1572 217.3055 0001172  86.6873 143.8172 15.69769475    19

Śledź STARLINK-11470 w czasie rzeczywistym z AllMySat

Download on the App Store